Location: Newark
(50.4348°N, 30.5552°E)
Time: 02:38:18
(UTC+00:00)

Tiros 1 despin weight - Pass Details

Date: 24 January 2020
Orbit: 594 x 642 km, 48.2° (Epoch: 25 February)

Event Time Altitude Azimuth Distance (km) Brightness Sun altitude
Rises 16:11:23 0° 276° (W) 2,927 ? -14.9°
Reaches altitude 10° 16:15:00 10° 247° (WSW) 2,022 ? -15.5°
Maximum altitude 16:16:55 12° 223° (SW) 1,863 ? -15.8°
Drops below altitude 10° 16:18:51 10° 198° (SSW) 2,024 ? -16.1°
Sets 16:22:29 0° 169° (S) 2,931 ? -16.7°
